Weather History for PAMC - March, 2013

Change the Weather History Date:

Wednesday, March 27, 2013

  Actual Average Record
Temperature  
Mean Temperature -11 °F 16 °F  
Max Temperature 12 °F 29 °F 51 °F (1954)
Min Temperature -33 °F - -37 °F (1977)
Degree Days  
Heating Degree Days 76 49  
Month to date heating degree days 1571 1467  
Since 1 July heating degree days 12100 11705  
Cooling Degree Days 0    
Month to date cooling degree days 0  
Year to date cooling degree days 0  
Moisture  
Dew Point -19 °F    
Average Humidity 0    
Maximum Humidity 0    
Minimum Humidity 0    
Precipitation  
Precipitation 0.00 in 0.02 in 0.98 in (1948)
Month to date precipitation 0.49 0.72  
Year to date precipitation 3.66 2.75  
Snow  
Snow 0.00 in 0.20 in 4.50 in (1984)
Month to date snowfall 7.2 10.2  
Since 1 July snowfall 73.1 90.2  
Snow Depth 31.00 in    
Sea Level Pressure  
Sea Level Pressure 30.22 in    
Wind  
Wind Speed 1 mph (NNW)    
Max Wind Speed 6 mph    
Max Gust Speed 7 mph    
Visibility 10 miles    
Events      
T = Trace of Precipitation, MM = Missing Value Source: NWS Daily Summary

Daily Weather History Graph

Daily Weather History Graph

Search for Another Location

Airport or City:

Trip Planner

Search our weather history database for the weather conditions in past years. The results will help you decide how hot, cold, wet, or windy it might be!

Date:

Astronomy

Mar. 27, 2013 Rise Set
Actual Time 7:58 AM AKDT 8:58 PM AKDT
Civil Twilight 7:11 AM AKDT 9:45 PM AKDT
Nautical Twilight 6:13 AM AKDT 10:44 PM AKDT
Astronomical Twilight 5:04 AM AKDT 11:54 PM AKDT
Moon 10:27 PM AKDT (3/27) 7:37 AM AKDT (3/27)
Length of Visible Light 14h 34m
Length of Day
13h 00m
Full, 100% of the Moon is Illuminated
Mar 27
Full
Apr 2
Last Quarter
Apr 10
New
Apr 18
First Quarter
Apr 25
Full

Hourly Weather History & Observations

Time (AKDT) Temp. Windchill Dew Point Humidity Pressure Visibility Wind Dir Wind Speed Gust Speed Precip Events Conditions
12:53 AM -22.0 °F - -27.0 °F 77% 30.28 in 10.0 mi Calm Calm - N/A   Clear
1:53 AM -23.1 °F -34.2 °F -29.0 °F 74% 30.28 in 10.0 mi NNW 3.5 mph - N/A   Clear
2:53 AM -24.0 °F - -31.0 °F 70% 30.29 in 10.0 mi Calm Calm - N/A   Clear
3:53 AM -27.0 °F - -33.0 °F 73% 30.28 in 10.0 mi Calm Calm - N/A   Clear
4:53 AM -29.9 °F - - N/A% 30.29 in 10.0 mi Calm Calm - N/A   Clear
5:53 AM -29.9 °F - - N/A% 30.29 in 10.0 mi Calm Calm - N/A   Clear
6:53 AM -32.1 °F - - N/A% 30.30 in 10.0 mi Calm Calm - N/A   Clear
7:53 AM -33.0 °F - - N/A% 30.30 in 10.0 mi Calm Calm - N/A   Clear
8:53 AM -29.9 °F - - N/A% 30.29 in 8.0 mi Calm Calm - N/A   Clear
9:53 AM -23.1 °F - -29.0 °F 74% 30.29 in 10.0 mi Calm Calm - N/A   Clear
10:53 AM -16.1 °F - -23.1 °F 71% 30.28 in 10.0 mi Calm Calm - N/A   Partly Cloudy
11:53 AM -9.0 °F - -18.9 °F 62% 30.27 in 10.0 mi Calm Calm - N/A   Partly Cloudy
12:53 PM -5.1 °F - -17.0 °F 57% 30.25 in 10.0 mi Calm Calm - N/A   Partly Cloudy
1:53 PM 1.0 °F - -15.0 °F 47% 30.24 in 10.0 mi Calm Calm - N/A   Partly Cloudy
2:53 PM 6.1 °F - -13.0 °F 41% 30.22 in 10.0 mi Calm Calm - N/A   Partly Cloudy
3:53 PM 9.0 °F - -13.0 °F 36% 30.20 in 10.0 mi Calm Calm - N/A   Scattered Clouds
4:53 PM 10.9 °F - -11.0 °F 37% 30.18 in 10.0 mi Calm Calm - N/A   Scattered Clouds
5:53 PM 10.9 °F 4.7 °F -11.0 °F 37% 30.16 in 10.0 mi North 3.5 mph - N/A   Clear
6:53 PM 9.0 °F 0.6 °F -9.9 °F 42% 30.14 in 10.0 mi North 4.6 mph - N/A   Clear
7:53 PM 7.0 °F -1.7 °F -11.0 °F 44% 30.13 in 10.0 mi NNE 4.6 mph - N/A   Clear
8:53 PM 3.9 °F -3.4 °F -11.0 °F 50% 30.11 in 10.0 mi NNW 3.5 mph - N/A   Clear
9:53 PM -2.9 °F - -13.0 °F 62% 30.11 in 10.0 mi Calm Calm - N/A   Clear
10:53 PM -2.9 °F -11.2 °F -15.0 °F 56% 30.10 in 10.0 mi West 3.5 mph - N/A   Clear
11:53 PM -7.1 °F - -15.0 °F 68% 30.09 in 10.0 mi Calm Calm - N/A   Mostly Cloudy